Regional Weather Roundup
Issued by NWS Cleveland, OH

Home | Current Version | Previous Version | Graphics & Text | Print | Product List | Glossary On
Versions: 1 2 3 4 5 6 7 8 9 10 11 12 13 14 15 16 17 18 19 20 21 22 23 24 25 26 27 28 29 30 31 32 33 34 35 36 37 38 39 40 41 42 43 44 45 46 47 48 49 50
000
ASUS41 KCLE 211002
RWRCLE
OHIO REGIONAL WEATHER ROUNDUP
NATIONAL WEATHER SERVICE CLEVELAND, OH
600 AM EDT TUE OCT 21 2014

NOTE: "FAIR" INDICATES FEW OR NO CLOUDS BELOW 12,000 FEET WITH NO
SIGNIFICANT WEATHER AND/OR OBSTRUCTIONS TO VISIBILITY.

OHZ001>008-015>018-024>027-034-035-043-044-211100-
   NORTHWEST OHIO

CITY           SKY/WX    TMP DP  RH WIND       PRES   REMARKS
DEFIANCE       CLOUDY    48  43  82 NW5       29.95R
FINDLAY        CLOUDY    50  44  80 MISG      29.91R
TOLEDO EXPRESS CLOUDY    47  45  93 NW6       29.92R
TOLEDO EXEC    CLOUDY    50  43  77 NW9       29.92R
LIMA           CLOUDY    48  43  82 NW8       29.93R
$$

OHZ009>014-019>023-028>033-038-089-211100-
   NORTHEAST OHIO

CITY           SKY/WX    TMP DP  RH WIND       PRES   REMARKS
CLE-HOPKINS    CLOUDY    51  48  89 NW9       29.88R
CLE-LAKEFRONT  RAIN      52  48  86 N17       29.85R
CUY CO. ARPT   NOT AVBL
LORAIN-ELYRIA  CLOUDY    50  48  93 N8        29.88R
ASHTABULA      CLOUDY    51  50  96 N5        29.83S
AKRON-CANTON   HVY RAIN  52  49  89 NW9       29.84S VSB 1
WOOSTER        LGT RAIN  52  49  89 W7        29.86S FOG
MANSFIELD      LGT RAIN  49  48  97 NW8       29.88R
YOUNGSTOWN     LGT RAIN  51  50  96 SW3       29.82S VSB 1
$$

OHZ042-051>053-060>062-070>072-077>081-211100-
  SOUTHWEST OHIO

CITY           SKY/WX    TMP DP  RH WIND       PRES   REMARKS
CINC-COVINGTON MOCLDY    50  46  86 NW8       29.95R
CINC-LUNKEN    CLOUDY    52  47  83 NW8       29.96R
HAMILTON       MOCLDY    49  47  93 W5        29.96R
DAYTON         CLOUDY    50  45  83 NW8       29.94R
WRIGHT-PAT AFB CLOUDY    50  46  87 NW7       29.93R
DAYTON GENERAL CLOUDY    50  46  86 NW8       29.93R
WILMINGTON     MOCLDY    50  46  86 NW10      29.92R
$$

OHZ036-037-039>041-045>050-054>059-063>069-073>076-082>088-211100-
  CENTRAL AND SOUTHEAST OHIO

CITY           SKY/WX    TMP DP  RH WIND       PRES   REMARKS
COLUMBUS       CLOUDY    50  48  93 NW5       29.89S FOG
OSU AIRPORT    CLOUDY    50  48  93 NW6       29.90R
BOLTON FIELD   CLOUDY    49  49  98 W6        29.91R FOG
RICKENBACK AFB NOT AVBL
NEWARK         CLOUDY    51  48  89 W3        29.88S FOG
MARION         LGT RAIN  48  46  93 NW9       29.90R FOG
LANCASTER      CLOUDY    51  48  89 NW3       29.89S FOG
ZANESVILLE     CLOUDY    48  46  93 W3        29.88R FOG
NEW PHILLY     CLOUDY    52  49  89 CALM      29.87R FOG
$$


USA.gov is the U.S. government's official web portal to all federal, state and local government web resources and services.